VK6ADF Weather Reports


time (UTC)temp
C
wind
direction
speed
KPH
gust
KPH
rain 1hr
cm
rain 24hr
cm
rain mn
cm
humidity
%
barometer
mb
20260507014641 19 9 6.4 17.7 0.00 0.00 0.00 54 1027.3
20260507014549 19 9 6.4 17.7 0.00 0.00 0.00 54 1027.3
20260507013031 18 53 11.3 27.4 0.00 0.00 0.00 55 1027.4
20260507011534 18 15 8.0 22.5 0.00 0.00 0.00 57 1027.5
20260507010030 17 67 6.4 19.3 0.00 0.00 0.00 58 1027.4
20260507004536 17 67 8.0 16.1 0.00 0.00 0.00 60 1027.3
20260507003029 16 36 9.7 19.3 0.00 0.00 0.00 61 1027.2
20260507001531 15 334 6.4 16.1 0.00 0.00 0.00 63 1027.1
20260507000030 15 338 6.4 14.5 0.00 0.00 0.00 65 1027.0
20260506234530 14 217 6.4 11.3 0.00 0.00 0.00 66 1027.0
20260506233028 13 153 4.8 9.7 0.00 0.00 0.00 68 1026.9
20260506231528 12 153 3.2 6.4 0.00 0.00 0.00 69 1026.7
20260506230132 12 161 3.2 8.0 0.00 0.00 0.00 68 1026.5
20260506224532 13 184 4.8 9.7 0.00 0.00 0.00 68 1026.3
20260506223028 13 184 3.2 9.7 0.00 0.00 0.00 67 1026.3
20260506221529 13 340 3.2 8.0 0.00 0.00 0.00 67 1026.3
20260506220038 13 181 4.8 12.9 0.00 0.00 0.00 67 1026.3
20260506214531 13 203 3.2 6.4 0.00 0.00 0.00 66 1026.1
20260506213031 13 176 3.2 11.3 0.00 0.00 0.00 66 1026.1
20260506211757 13 181 1.6 6.4 0.00 0.00 0.00 66 1025.8
20260506210030 13 167 4.8 8.0 0.00 0.00 0.00 66 1025.6
20260506203030 13 215 3.2 8.0 0.00 0.00 0.00 66 1025.7
20260506201529 13 192 3.2 8.0 0.00 0.00 0.00 66 1025.6
20260506200030 13 47 4.8 9.7 0.00 0.00 0.00 66 1025.6
20260506194528 13 46 4.8 8.0 0.00 0.00 0.00 67 1025.5
20260506193030 13 161 3.2 6.4 0.00 0.00 0.00 67 1025.4
20260506191527 13 150 3.2 4.8 0.00 0.00 0.00 67 1025.4
20260506190030 13 188 3.2 8.0 0.00 0.00 0.00 66 1025.6
20260506184530 13 147 3.2 8.0 0.00 0.00 0.00 67 1025.5
20260506183028 13 196 3.2 6.4 0.00 0.00 0.00 68 1025.5
20260506181528 13 180 1.6 3.2 0.00 0.00 0.00 68 1025.7
20260506180028 13 180 1.6 3.2 0.00 0.00 0.00 68 1025.7
20260506174529 13 0 0.0 3.2 0.00 0.00 0.00 67 1025.8
20260506173029 13 180 0.0 1.6 0.00 0.00 0.00 66 1025.8
20260506171528 14 0 0.0 3.2 0.00 0.00 0.00 65 1025.8
20260506170030 14 0 0.0 3.2 0.00 0.00 0.00 65 1025.6
20260506164530 14 180 0.0 3.2 0.00 0.00 0.00 65 1025.6
20260506163032 14 180 0.0 3.2 0.00 0.00 0.00 64 1025.6
20260506161533 14 0 0.0 1.6 0.00 0.00 0.00 63 1025.5
20260506160029 15 180 0.0 1.6 0.00 0.00 0.00 63 1025.6
20260506154530 15 180 0.0 1.6 0.00 0.00 0.00 62 1025.6
20260506153027 15 181 0.0 1.6 0.00 0.00 0.00 62 1025.6
20260506151529 14 0 0.0 1.6 0.00 0.00 0.00 63 1025.8
20260506150027 14 0 0.0 0.0 0.00 0.00 0.00 61 1025.9
20260506144534 15 181 0.0 1.6 0.00 0.00 0.00 59 1025.9
20260506143030 15 180 0.0 1.6 0.00 0.00 0.00 58 1025.9
20260506141535 15 180 1.6 3.2 0.00 0.00 0.00 57 1025.9
20260506140030 16 180 1.6 3.2 0.00 0.00 0.00 57 1025.9
20260506134529 16 180 0.0 1.6 0.00 0.00 0.00 56 1025.9
20260506133035 16 180 0.0 1.6 0.00 0.00 0.00 55 1025.8
20260506131528 16 180 0.0 1.6 0.00 0.00 0.00 54 1025.7
20260506130030 16 180 0.0 1.6 0.00 0.00 0.00 54 1025.7
20260506124540 16 180 0.0 1.6 0.00 0.00 0.00 53 1025.6
20260506123030 17 180 0.0 3.2 0.00 0.00 0.00 52 1025.4
20260506121530 17 0 0.0 0.0 0.00 0.00 0.00 51 1025.3
20260506120030 17 0 0.0 0.0 0.00 0.00 0.00 50 1025.0
20260506114527 17 0 0.0 0.0 0.00 0.00 0.00 50 1024.7
20260506113031 17 0 0.0 0.0 0.00 0.00 0.00 48 1024.7
20260506111530 18 0 0.0 0.0 0.00 0.00 0.00 45 1024.6
20260506110030 19 0 0.0 0.0 0.00 0.00 0.00 44 1024.4
20260506104529 20 0 0.0 0.0 0.00 0.00 0.00 42 1024.4
20260506103030 21 180 0.0 1.6 0.00 0.00 0.00 40 1024.2
20260506101530 21 180 0.0 3.2 0.00 0.00 0.00 38 1024.1
20260506100028 22 153 3.2 8.0 0.00 0.00 0.00 36 1023.9
20260506094529 23 107 4.8 14.5 0.00 0.00 0.00 35 1023.9
20260506093038 23 111 6.4 14.5 0.00 0.00 0.00 34 1023.7
20260506091531 24 86 6.4 16.1 0.00 0.00 0.00 34 1023.6
20260506090030 24 126 8.0 20.9 0.00 0.00 0.00 33 1023.5
20260506084536 25 44 6.4 14.5 0.00 0.00 0.00 33 1023.4
20260506083311 25 63 6.4 17.7 0.00 0.00 0.00 32 1023.3
20260506073032 26 309 9.7 17.7 0.00 0.00 0.00 32 1023.2
20260506071532 26 87 6.4 19.3 0.00 0.00 0.00 31 1023.2
20260506060133 27 84 9.7 22.5 0.00 0.00 0.00 30 1023.5